Flag for China Weather past 2 weeks in Chengdu, Sichuan, China

Now
75 °F

Passing clouds.


Feels Like: 75 °F
Forecast: 74 / 85 °F
Wind: 1 mph from North

Location: Chengdu Airport

Current Time: Sep 5, 2015 at 1:47:29 AM

Latest Report: Sep 5, 2015 at 1:00 AM


Visibility: 4 mi

Pressure: 29.86 "Hg

Humidity: 89%

Dew point: 72 °F

Location of ChengduLocation

Historic Weather in Chengdu — Graph

°F

Chengdu temperature yesterday

Maximum temperature yesterday: 79 °F (at 6:00 PM)
Minimum temperature yesterday: 72 °F (at 1:00 AM)
Average temperature yesterday: 74 °F

Past Weeks' High & Low Weather Summary

 TemperatureHumidityPressure
High93 °F (Aug 23, 3:00 PM)100% (Aug 24, 9:00 PM)29.95 "Hg (Aug 24, 9:00 PM)
Low70 °F (Aug 24, 7:00 PM)36% (Aug 23, 4:00 PM)29.65 "Hg (Aug 23, 4:00 PM)
Average76 °F84%29.83 "Hg
* Reported Midnight between Aug 20 and Aug 21 — Midnight between Sep 4 and Sep 5, Chengdu, Weather by CustomWeather, © 2015

Note: Actual official high and low records may vary slightly from our data, if they occured in-between our weather recording intervals... More about our weather records

Advertising

Chengdu weather history for previous 24 hours

 ConditionsComfort  
Time TempWeatherWind HumidityBarometerVisibility
12:00 AM
Sat, Sep 5
75 °FPassing clouds.1 mph89%29.89 "HgN/A
11:00 PM
Fri, Sep 4
75 °FPassing clouds.1 mph89%29.89 "HgN/A
10:00 PM75 °FPassing clouds.1 mph94%29.89 "HgN/A
9:00 PM75 °FPassing clouds.1 mph89%29.86 "HgN/A
8:00 PM77 °FPassing clouds.3 mph83%29.83 "HgN/A
7:00 PM79 °FScattered clouds.6 mph84%29.83 "HgN/A
6:00 PM79 °FScattered clouds.6 mph79%29.80 "Hg5 mi
5:00 PM77 °FScattered clouds.3 mph89%29.80 "Hg5 mi
4:00 PM77 °FScattered clouds.3 mph83%29.80 "Hg5 mi
3:00 PM77 °FFog.3 mph89%29.83 "Hg3 mi
2:00 PM75 °FSprinkles. Fog.3 mph94%29.83 "Hg2 mi
1:00 PM73 °FSprinkles. Fog.3 mph100%29.83 "Hg1 mi
12:00 PM73 °FSprinkles. Fog.3 mph100%29.86 "Hg1 mi
11:00 AM73 °FSprinkles. Fog.3 mph100%29.86 "Hg1 mi
10:00 AM73 °FSprinkles. Fog.3 mph100%29.83 "Hg1 mi
9:00 AM73 °FSprinkles. Fog.3 mph100%29.83 "Hg3 mi
8:00 AM73 °FSprinkles. Fog.1 mph100%29.80 "Hg2 mi
7:00 AM73 °FScattered clouds.6 mph100%29.80 "Hg4 mi
6:00 AM72 °FPassing clouds.3 mph100%29.77 "Hg4 mi
5:00 AM72 °FSprinkles. Fog.3 mph100%29.77 "Hg3 mi
4:00 AM72 °FThunderstorms. Fog.1 mph100%29.77 "Hg2 mi
3:00 AM72 °FSprinkles. Fog.1 mph100%29.77 "Hg2 mi
2:00 AM72 °FSprinkles. Fog.1 mph100%29.80 "Hg2 mi
1:00 AM72 °FSprinkles. Fog.1 mph100%29.80 "Hg2 mi
Weather by CustomWeather, © 2015

See weather overviewHow to use our weather pages